Time,TemperatureF,DewpointF,PressureIn,WindDirection,WindDirectionDegrees,WindSpeedMPH,WindSpeedGustMPH,Humidity,HourlyPrecipIn,Conditions,Clouds,dailyrainin,SoftwareType,DateUTC
2013-03-12 00:02:00,27.0,23.0,29.74,West,276,0.0,3.0,84,0.00,,,0.02,,2013-03-12 05:02:00,
2013-03-12 00:12:00,27.0,23.0,29.74,West,276,0.0,3.0,84,0.00,,,0.02,,2013-03-12 05:12:00,
2013-03-12 00:22:00,27.0,23.0,29.74,West,263,0.0,2.0,83,0.00,,,0.02,,2013-03-12 05:22:00,
2013-03-12 00:32:00,27.0,23.0,29.74,WSW,256,2.0,6.0,83,0.00,,,0.02,,2013-03-12 05:32:00,
2013-03-12 00:42:00,27.0,23.0,29.74,WSW,256,2.0,6.0,83,0.00,,,0.02,,2013-03-12 05:42:00,
2013-03-12 00:52:00,27.0,23.0,29.74,West,259,1.0,3.0,85,0.00,,,0.02,,2013-03-12 05:52:00,
2013-03-12 01:02:00,26.0,22.0,29.75,West,260,1.0,2.0,86,0.00,,,0.02,,2013-03-12 06:02:00,
2013-03-12 01:12:00,26.0,22.0,29.75,West,260,1.0,2.0,86,0.00,,,0.02,,2013-03-12 06:12:00,
2013-03-12 01:22:00,26.0,23.0,29.75,WSW,238,0.0,2.0,87,0.00,,,0.02,,2013-03-12 06:22:00,
2013-03-12 01:32:00,26.0,23.0,29.75,WSW,256,0.0,3.0,87,0.00,,,0.02,,2013-03-12 06:32:00,
2013-03-12 01:42:00,26.0,23.0,29.75,WSW,256,0.0,3.0,87,0.00,,,0.02,,2013-03-12 06:42:00,
2013-03-12 01:52:00,26.0,23.0,29.75,West,279,1.0,3.0,87,0.00,,,0.02,,2013-03-12 06:52:00,
2013-03-12 02:02:00,25.0,21.0,29.75,West,277,1.0,3.0,86,0.00,,,0.02,,2013-03-12 07:02:00,
2013-03-12 02:12:00,25.0,21.0,29.75,West,277,1.0,3.0,86,0.00,,,0.02,,2013-03-12 07:12:00,
2013-03-12 02:22:00,25.0,21.0,29.75,WNW,286,1.0,6.0,85,0.00,,,0.02,,2013-03-12 07:22:00,
2013-03-12 02:32:00,25.0,21.0,29.76,WSW,248,1.0,3.0,85,0.00,,,0.02,,2013-03-12 07:32:00,
2013-03-12 02:42:00,25.0,21.0,29.76,WSW,248,1.0,3.0,85,0.00,,,0.02,,2013-03-12 07:42:00,
2013-03-12 02:52:00,25.0,21.0,29.76,West,269,0.0,2.0,86,0.00,,,0.02,,2013-03-12 07:52:00,
2013-03-12 03:02:00,25.0,21.0,29.76,West,268,0.0,2.0,85,0.00,,,0.02,,2013-03-12 08:02:00,
2013-03-12 03:12:00,25.0,21.0,29.76,West,268,0.0,2.0,85,0.00,,,0.02,,2013-03-12 08:12:00,
2013-03-12 03:22:00,25.0,21.0,29.76,WSW,240,1.0,3.0,85,0.00,,,0.02,,2013-03-12 08:22:00,
2013-03-12 03:32:00,25.0,21.0,29.76,WSW,238,1.0,3.0,84,0.00,,,0.02,,2013-03-12 08:32:00,
2013-03-12 03:42:00,25.0,21.0,29.76,WSW,238,1.0,3.0,84,0.00,,,0.02,,2013-03-12 08:42:00,
2013-03-12 03:52:00,25.0,21.0,29.76,WSW,244,1.0,3.0,84,0.00,,,0.02,,2013-03-12 08:52:00,
2013-03-12 04:03:00,24.0,20.0,29.76,WSW,258,0.0,2.0,83,0.00,,,0.02,,2013-03-12 09:03:00,
2013-03-12 04:12:00,24.0,20.0,29.76,WSW,258,0.0,2.0,83,0.00,,,0.02,,2013-03-12 09:12:00,
2013-03-12 04:22:00,24.0,20.0,29.76,WSW,243,0.0,2.0,83,0.00,,,0.02,,2013-03-12 09:22:00,
2013-03-12 04:32:00,24.0,20.0,29.76,West,259,1.0,3.0,83,0.00,,,0.02,,2013-03-12 09:32:00,
2013-03-12 04:42:00,24.0,20.0,29.76,West,259,1.0,3.0,83,0.00,,,0.02,,2013-03-12 09:42:00,
2013-03-12 04:52:00,24.0,20.0,29.76,West,270,1.0,3.0,83,0.00,,,0.02,,2013-03-12 09:52:00,
2013-03-12 05:02:00,23.0,19.0,29.76,West,270,1.0,3.0,83,0.00,,,0.02,,2013-03-12 10:02:00,
2013-03-12 05:12:00,23.0,19.0,29.76,West,270,1.0,3.0,83,0.00,,,0.02,,2013-03-12 10:12:00,
2013-03-12 05:22:00,22.0,18.0,29.77,West,269,0.0,3.0,83,0.00,,,0.02,,2013-03-12 10:22:00,
2013-03-12 05:32:00,22.0,18.0,29.77,West,272,0.0,1.0,83,0.00,,,0.02,,2013-03-12 10:32:00,
2013-03-12 05:42:00,22.0,18.0,29.77,West,272,0.0,1.0,83,0.00,,,0.02,,2013-03-12 10:42:00,
2013-03-12 05:52:00,21.0,17.0,29.78,West,271,0.0,2.0,83,0.00,,,0.02,,2013-03-12 10:52:00,
2013-03-12 06:02:00,21.0,17.0,29.78,WSW,238,0.0,0.0,84,0.00,,,0.02,,2013-03-12 11:02:00,
2013-03-12 06:12:00,21.0,17.0,29.78,WSW,238,0.0,0.0,84,0.00,,,0.02,,2013-03-12 11:12:00,
2013-03-12 06:22:00,21.0,17.0,29.78,West,272,0.0,3.0,84,0.00,,,0.02,,2013-03-12 11:22:00,
2013-03-12 06:32:00,21.0,17.0,29.79,West,263,0.0,2.0,85,0.00,,,0.02,,2013-03-12 11:32:00,
2013-03-12 06:42:00,21.0,17.0,29.79,West,263,0.0,2.0,85,0.00,,,0.02,,2013-03-12 11:42:00,
2013-03-12 06:52:00,21.0,17.0,29.79,SW,236,0.0,0.0,85,0.00,,,0.02,,2013-03-12 11:52:00,
2013-03-12 07:02:00,21.0,17.0,29.79,WSW,251,0.0,1.0,85,0.00,,,0.02,,2013-03-12 12:02:00,
2013-03-12 07:12:00,21.0,17.0,29.79,WSW,251,0.0,1.0,85,0.00,,,0.02,,2013-03-12 12:12:00,
2013-03-12 07:22:00,21.0,17.0,29.79,WSW,238,0.0,3.0,85,0.00,,,0.02,,2013-03-12 12:22:00,
2013-03-12 07:32:00,21.0,17.0,29.79,WSW,254,0.0,1.0,85,0.00,,,0.02,,2013-03-12 12:32:00,
2013-03-12 07:42:00,21.0,17.0,29.79,WSW,254,0.0,1.0,85,0.00,,,0.02,,2013-03-12 12:42:00,
2013-03-12 07:52:00,21.0,17.0,29.80,WSW,253,0.0,1.0,84,0.00,,,0.02,,2013-03-12 12:52:00,
2013-03-12 08:02:00,21.0,17.0,29.80,WSW,240,0.0,1.0,84,0.00,,,0.02,,2013-03-12 13:02:00,
2013-03-12 08:12:00,21.0,17.0,29.80,WSW,240,0.0,1.0,84,0.00,,,0.02,,2013-03-12 13:12:00,
2013-03-12 08:22:00,21.0,17.0,29.80,WSW,257,1.0,2.0,84,0.00,,,0.02,,2013-03-12 13:22:00,
2013-03-12 08:32:00,21.0,17.0,29.81,West,267,0.0,2.0,84,0.00,,,0.02,,2013-03-12 13:32:00,
2013-03-12 08:42:00,21.0,17.0,29.81,West,267,0.0,2.0,84,0.00,,,0.02,,2013-03-12 13:42:00,
2013-03-12 08:52:00,22.0,18.0,29.81,WSW,249,0.0,3.0,83,0.00,,,0.02,,2013-03-12 13:52:00,
2013-03-12 09:02:00,22.0,18.0,29.81,WSW,248,0.0,1.0,83,0.00,,,0.02,,2013-03-12 14:02:00,
2013-03-12 09:12:00,22.0,18.0,29.81,WSW,248,0.0,1.0,83,0.00,,,0.02,,2013-03-12 14:12:00,
2013-03-12 09:22:00,23.0,18.0,29.81,West,263,1.0,3.0,82,0.00,,,0.02,,2013-03-12 14:22:00,
2013-03-12 09:32:00,23.0,18.0,29.81,West,263,0.0,2.0,82,0.00,,,0.02,,2013-03-12 14:32:00,
2013-03-12 09:42:00,23.0,18.0,29.81,West,263,0.0,2.0,82,0.00,,,0.02,,2013-03-12 14:42:00,
2013-03-12 09:52:00,23.0,18.0,29.82,West,261,0.0,3.0,82,0.00,,,0.02,,2013-03-12 14:52:00,
2013-03-12 10:02:00,24.0,19.0,29.82,West,272,1.0,3.0,80,0.00,,,0.02,,2013-03-12 15:02:00,
2013-03-12 10:12:00,24.0,19.0,29.82,West,272,1.0,3.0,80,0.00,,,0.02,,2013-03-12 15:12:00,
2013-03-12 10:22:00,24.0,19.0,29.82,West,267,1.0,3.0,80,0.00,,,0.02,,2013-03-12 15:22:00,
2013-03-12 10:32:00,25.0,19.0,29.83,SW,223,1.0,3.0,79,0.00,,,0.02,,2013-03-12 15:32:00,
2013-03-12 10:42:00,25.0,19.0,29.83,SW,223,1.0,3.0,79,0.00,,,0.02,,2013-03-12 15:42:00,
2013-03-12 10:52:00,25.0,19.0,29.83,WSW,253,2.0,5.0,78,0.00,,,0.02,,2013-03-12 15:52:00,
2013-03-12 11:02:00,25.0,19.0,29.83,WSW,240,1.0,5.0,77,0.00,,,0.02,,2013-03-12 16:02:00,
2013-03-12 11:12:00,25.0,19.0,29.83,WSW,240,1.0,5.0,77,0.00,,,0.02,,2013-03-12 16:12:00,
2013-03-12 11:22:00,26.0,20.0,29.83,WSW,248,2.0,5.0,77,0.00,,,0.02,,2013-03-12 16:22:00,
2013-03-12 11:32:00,27.0,20.0,29.83,NE,55,1.0,3.0,74,0.00,,,0.02,,2013-03-12 16:32:00,
2013-03-12 11:42:00,27.0,20.0,29.83,NE,55,1.0,3.0,74,0.00,,,0.02,,2013-03-12 16:42:00,
2013-03-12 11:52:00,27.0,20.0,29.84,NNW,334,1.0,5.0,75,0.00,,,0.02,,2013-03-12 16:52:00,
2013-03-12 12:02:00,27.0,20.0,29.83,West,262,1.0,5.0,73,0.00,,,0.02,,2013-03-12 17:02:00,
2013-03-12 12:12:00,27.0,20.0,29.83,West,262,1.0,5.0,73,0.00,,,0.02,,2013-03-12 17:12:00,
2013-03-12 12:22:00,28.0,20.0,29.84,SW,231,1.0,6.0,72,0.00,,,0.02,,2013-03-12 17:22:00,
2013-03-12 12:33:00,27.0,20.0,29.84,WSW,252,1.0,3.0,74,0.00,,,0.02,,2013-03-12 17:33:00,
2013-03-12 12:43:00,27.0,20.0,29.84,WSW,252,1.0,3.0,74,0.00,,,0.02,,2013-03-12 17:43:00,
2013-03-12 12:53:00,27.0,20.0,29.84,NW,305,2.0,7.0,75,0.00,,,0.02,,2013-03-12 17:53:00,
2013-03-12 13:02:00,27.0,20.0,29.84,South,186,2.0,7.0,73,0.00,,,0.02,,2013-03-12 18:02:00,
2013-03-12 13:13:00,28.0,20.0,29.85,WSW,252,2.0,6.0,71,0.00,,,0.02,,2013-03-12 18:13:00,
2013-03-12 13:23:00,28.0,20.0,29.85,WSW,252,2.0,6.0,71,0.00,,,0.02,,2013-03-12 18:23:00,
2013-03-12 13:33:00,28.0,20.0,29.85,West,269,1.0,7.0,71,0.00,,,0.02,,2013-03-12 18:33:00,
2013-03-12 13:42:00,28.0,20.0,29.85,West,269,1.0,7.0,71,0.00,,,0.02,,2013-03-12 18:42:00,
2013-03-12 13:53:00,29.0,20.0,29.85,WNW,296,1.0,6.0,69,0.01,,,0.03,,2013-03-12 18:53:00,
2013-03-12 14:03:00,29.0,20.0,29.84,West,259,2.0,6.0,68,0.01,,,0.03,,2013-03-12 19:03:00,
2013-03-12 14:13:00,29.0,20.0,29.84,West,259,2.0,6.0,68,0.01,,,0.03,,2013-03-12 19:13:00,
2013-03-12 14:22:00,29.0,18.0,29.84,WNW,290,5.0,12.0,64,0.02,,,0.03,,2013-03-12 19:22:00,
2013-03-12 14:33:00,29.0,19.0,29.85,West,267,2.0,5.0,65,0.02,,,0.03,,2013-03-12 19:33:00,
2013-03-12 14:43:00,29.0,19.0,29.85,West,267,2.0,5.0,65,0.02,,,0.03,,2013-03-12 19:43:00,
2013-03-12 14:53:00,29.0,18.0,29.85,WNW,291,2.0,9.0,63,0.01,,,0.03,,2013-03-12 19:53:00,
2013-03-12 15:02:00,29.0,17.0,29.85,WNW,289,2.0,7.0,61,0.00,,,0.02,,2013-03-12 20:02:00,
2013-03-12 15:12:00,29.0,17.0,29.85,WNW,289,2.0,7.0,61,0.00,,,0.02,,2013-03-12 20:12:00,
2013-03-12 15:22:00,30.0,17.0,29.85,West,277,3.0,6.0,59,0.00,,,0.02,,2013-03-12 20:22:00,
2013-03-12 15:32:00,30.0,18.0,29.86,NW,316,2.0,5.0,61,0.00,,,0.02,,2013-03-12 20:32:00,
2013-03-12 15:42:00,30.0,18.0,29.86,NW,316,2.0,5.0,61,0.00,,,0.02,,2013-03-12 20:42:00,
2013-03-12 15:53:00,29.0,17.0,29.86,WSW,242,2.0,6.0,61,0.00,,,0.02,,2013-03-12 20:53:00,
2013-03-12 16:02:00,29.0,16.0,29.87,WSW,241,1.0,8.0,58,0.00,,,0.02,,2013-03-12 21:02:00,
2013-03-12 16:12:00,29.0,16.0,29.87,WSW,241,1.0,8.0,58,0.00,,,0.02,,2013-03-12 21:12:00,
2013-03-12 16:22:00,29.0,16.0,29.87,West,275,2.0,7.0,58,0.00,,,0.02,,2013-03-12 21:22:00,
2013-03-12 16:32:00,29.0,15.0,29.87,WNW,292,2.0,7.0,56,0.00,,,0.02,,2013-03-12 21:32:00,
2013-03-12 16:43:00,29.0,15.0,29.87,WNW,292,2.0,7.0,56,0.00,,,0.02,,2013-03-12 21:43:00,
2013-03-12 16:52:00,30.0,16.0,29.88,WNW,294,2.0,5.0,56,0.00,,,0.02,,2013-03-12 21:52:00,
2013-03-12 17:02:00,29.0,15.0,29.88,West,274,2.0,7.0,55,0.00,,,0.02,,2013-03-12 22:02:00,
2013-03-12 17:12:00,29.0,15.0,29.88,West,274,2.0,7.0,55,0.00,,,0.02,,2013-03-12 22:12:00,
2013-03-12 17:22:00,29.0,14.0,29.89,West,260,1.0,5.0,54,0.00,,,0.02,,2013-03-12 22:22:00,
2013-03-12 17:33:00,29.0,14.0,29.89,West,279,1.0,3.0,54,0.00,,,0.02,,2013-03-12 22:33:00,
2013-03-12 17:42:00,29.0,14.0,29.89,West,279,1.0,3.0,54,0.00,,,0.02,,2013-03-12 22:42:00,
2013-03-12 17:52:00,29.0,16.0,29.90,NNW,338,0.0,2.0,57,0.00,,,0.02,,2013-03-12 22:52:00,
2013-03-12 18:02:00,28.0,14.0,29.90,NE,49,1.0,5.0,54,0.00,,,0.02,,2013-03-12 23:02:00,
2013-03-12 18:12:00,28.0,14.0,29.90,NE,49,1.0,5.0,54,0.00,,,0.02,,2013-03-12 23:12:00,
2013-03-12 18:22:00,28.0,14.0,29.91,WSW,246,2.0,12.0,55,0.00,,,0.02,,2013-03-12 23:22:00,
2013-03-12 18:34:00,28.0,14.0,29.92,NNE,23,2.0,9.0,54,0.00,,,0.02,,2013-03-12 23:34:00,
2013-03-12 18:43:00,28.0,14.0,29.92,NNE,23,2.0,9.0,54,0.00,,,0.02,,2013-03-12 23:43:00,
2013-03-12 18:52:00,27.0,14.0,29.92,NNW,348,1.0,5.0,57,0.00,,,0.02,,2013-03-12 23:52:00,
2013-03-12 19:02:00,27.0,13.0,29.93,North,357,1.0,3.0,54,0.00,,,0.02,,2013-03-13 00:02:00,
2013-03-12 19:12:00,27.0,13.0,29.93,North,357,1.0,3.0,54,0.00,,,0.02,,2013-03-13 00:12:00,
2013-03-12 19:22:00,27.0,13.0,29.94,NE,38,1.0,7.0,55,0.00,,,0.02,,2013-03-13 00:22:00,
2013-03-12 19:33:00,27.0,13.0,29.94,NE,42,0.0,2.0,56,0.00,,,0.02,,2013-03-13 00:33:00,
2013-03-12 19:42:00,27.0,13.0,29.94,NE,42,0.0,2.0,56,0.00,,,0.02,,2013-03-13 00:42:00,
2013-03-12 19:53:00,27.0,14.0,29.96,NE,36,2.0,10.0,58,0.00,,,0.02,,2013-03-13 00:53:00,
2013-03-12 20:02:00,26.0,15.0,29.96,NNE,17,3.0,12.0,62,0.00,,,0.02,,2013-03-13 01:02:00,
2013-03-12 20:12:00,26.0,15.0,29.96,NNE,17,3.0,12.0,62,0.00,,,0.02,,2013-03-13 01:12:00,
2013-03-12 20:22:00,26.0,16.0,29.98,NNE,29,3.0,15.0,65,0.00,,,0.02,,2013-03-13 01:22:00,
2013-03-12 20:32:00,25.0,16.0,29.99,North,5,5.0,10.0,68,0.00,,,0.02,,2013-03-13 01:32:00,
2013-03-12 20:42:00,25.0,16.0,29.99,North,5,5.0,10.0,68,0.00,,,0.02,,2013-03-13 01:42:00,
2013-03-12 20:53:00,24.0,15.0,30.00,North,350,4.0,12.0,68,0.00,,,0.02,,2013-03-13 01:53:00,
2013-03-12 21:02:00,24.0,16.0,30.00,NNE,26,4.0,10.0,70,0.00,,,0.02,,2013-03-13 02:02:00,
2013-03-12 21:12:00,24.0,16.0,30.00,NNE,26,4.0,10.0,70,0.00,,,0.02,,2013-03-13 02:12:00,
2013-03-12 21:22:00,23.0,15.0,30.02,NNE,24,5.0,14.0,71,0.00,,,0.02,,2013-03-13 02:22:00,
2013-03-12 21:32:00,23.0,15.0,30.02,NNE,28,4.0,12.0,71,0.00,,,0.02,,2013-03-13 02:32:00,
2013-03-12 21:42:00,23.0,15.0,30.02,NNE,28,4.0,12.0,71,0.00,,,0.02,,2013-03-13 02:42:00,
2013-03-12 21:52:00,22.0,14.0,30.03,North,7,3.0,9.0,71,0.00,,,0.02,,2013-03-13 02:52:00,
2013-03-12 22:02:00,22.0,14.0,30.04,NE,38,1.0,5.0,71,0.00,,,0.02,,2013-03-13 03:02:00,
2013-03-12 22:12:00,22.0,14.0,30.04,NE,38,1.0,5.0,71,0.00,,,0.02,,2013-03-13 03:12:00,
2013-03-12 22:22:00,22.0,14.0,30.05,NNE,28,3.0,9.0,71,0.00,,,0.02,,2013-03-13 03:22:00,
2013-03-12 22:32:00,22.0,14.0,30.05,North,5,1.0,3.0,71,0.00,,,0.02,,2013-03-13 03:32:00,
2013-03-12 22:42:00,22.0,14.0,30.05,North,5,1.0,3.0,71,0.00,,,0.02,,2013-03-13 03:42:00,
2013-03-12 22:52:00,22.0,14.0,30.06,NNE,31,2.0,7.0,71,0.00,,,0.02,,2013-03-13 03:52:00,
2013-03-12 23:02:00,21.0,14.0,30.06,NNE,17,1.0,6.0,73,0.00,,,0.02,,2013-03-13 04:02:00,
2013-03-12 23:13:00,21.0,14.0,30.06,NNE,17,1.0,6.0,73,0.00,,,0.02,,2013-03-13 04:13:00,
2013-03-12 23:22:00,21.0,14.0,30.06,NNE,13,0.0,3.0,74,0.00,,,0.02,,2013-03-13 04:22:00,
2013-03-12 23:32:00,21.0,14.0,30.07,NE,36,0.0,3.0,75,0.00,,,0.02,,2013-03-13 04:32:00,
2013-03-12 23:42:00,21.0,14.0,30.07,NE,36,0.0,3.0,75,0.00,,,0.02,,2013-03-13 04:42:00,
2013-03-12 23:53:00,20.0,14.0,30.08,NE,46,0.0,3.0,77,0.00,,,0.02,,2013-03-13 04:53:00,